Retour au catalogue

STARLINK-11141

ActifCommunicationsVLEO
NORAD 60066·PAYLOAD·🇺🇸 United States

Lancé Jun 19, 2024 depuis Vandenberg Space Force Base

Loading…

Prochains Passages (prochaines 24 heures)

TLE

FraisSource: CelesTrak SupGP

Époque: Sep 15, 2026, 02:10 UTC

1 60066C 24113H   26258.09076389  .00021215  00000+0  17477-3 0  2581
2 60066  53.1568 337.2643 0001084  95.7192 220.6133 15.69697227    14

Suivez STARLINK-11141 en temps réel avec AllMySat

Download on the App Store